Time,TemperatureF,DewpointF,PressureIn,WindDirection,WindDirectionDegrees,WindSpeedMPH,WindSpeedGustMPH,Humidity,HourlyPrecipIn,Conditions,Clouds,dailyrainin,SolarRadiationWatts/m^2,SoftwareType,DateUTC
2013-08-10 00:02:00,83.8,34.3,-100.00,SSE,159,0.0,-999.0,17,-99.99,,,0.00,0.0,meteohub,2013-08-10 04:02:00,
2013-08-10 00:07:00,83.7,32.7,-100.00,SSE,161,1.0,-999.0,16,-99.99,,,0.00,0.0,meteohub,2013-08-10 04:07:00,
2013-08-10 00:12:00,83.7,31.1,-100.00,SSE,158,0.0,-999.0,15,-99.99,,,0.00,0.0,meteohub,2013-08-10 04:12:00,
2013-08-10 00:17:00,83.7,31.1,-100.00,SSE,156,1.0,-999.0,15,-99.99,,,0.00,0.0,meteohub,2013-08-10 04:17:00,
2013-08-10 00:22:00,83.8,29.5,-100.00,SSE,161,0.0,-999.0,14,-99.99,,,0.00,0.0,meteohub,2013-08-10 04:22:00,
2013-08-10 00:27:00,83.8,29.5,-100.00,SSE,152,1.0,-999.0,14,-99.99,,,0.00,0.0,meteohub,2013-08-10 04:27:00,
2013-08-10 00:32:00,83.7,29.5,-100.00,SE,140,2.0,-999.0,14,-99.99,,,0.00,0.0,meteohub,2013-08-10 04:32:00,
2013-08-10 00:37:00,83.8,29.5,-100.00,SSE,153,1.0,-999.0,14,-99.99,,,0.00,0.0,meteohub,2013-08-10 04:37:00,
2013-08-10 00:42:00,83.7,27.7,-100.00,SSE,165,0.0,-999.0,13,-99.99,,,0.00,0.0,meteohub,2013-08-10 04:42:00,
2013-08-10 00:47:00,83.8,27.7,-100.00,SSE,157,0.0,-999.0,13,-99.99,,,0.00,0.0,meteohub,2013-08-10 04:47:00,
2013-08-10 00:52:00,83.7,25.7,-100.00,SSE,163,0.0,-999.0,12,-99.99,,,0.00,0.0,meteohub,2013-08-10 04:52:00,
2013-08-10 00:57:00,83.8,25.9,-100.00,SSE,155,0.0,-999.0,12,-99.99,,,0.00,0.0,meteohub,2013-08-10 04:57:00,
2013-08-10 01:02:00,83.7,25.7,-100.00,SSE,153,0.0,-999.0,12,-99.99,,,0.00,0.0,meteohub,2013-08-10 05:02:00,
2013-08-10 01:07:00,83.7,23.5,-100.00,SSE,155,0.0,-999.0,11,-99.99,,,0.00,0.0,meteohub,2013-08-10 05:07:00,
2013-08-10 01:12:00,83.8,23.7,-100.00,SSE,165,0.0,-999.0,11,-99.99,,,0.00,0.0,meteohub,2013-08-10 05:12:00,
2013-08-10 01:17:00,83.7,23.5,-100.00,SSE,153,0.0,-999.0,11,-99.99,,,0.00,0.0,meteohub,2013-08-10 05:17:00,
2013-08-10 01:22:00,83.7,23.5,-100.00,SSE,155,0.0,-999.0,11,-99.99,,,0.00,0.0,meteohub,2013-08-10 05:22:00,
2013-08-10 01:27:00,83.7,23.5,-100.00,SE,146,0.0,-999.0,11,-99.99,,,0.00,0.0,meteohub,2013-08-10 05:27:00,
2013-08-10 01:32:00,83.7,23.5,-100.00,SE,146,0.0,-999.0,11,-99.99,,,0.00,0.0,meteohub,2013-08-10 05:32:00,
2013-08-10 01:37:00,83.7,21.4,-100.00,SE,145,0.0,-999.0,10,-99.99,,,0.00,0.0,meteohub,2013-08-10 05:37:00,
2013-08-10 01:42:00,83.5,21.2,-100.00,SE,146,0.0,-999.0,10,-99.99,,,0.00,0.0,meteohub,2013-08-10 05:42:00,
2013-08-10 01:47:00,83.7,21.4,-100.00,SE,146,0.0,-999.0,10,-99.99,,,0.00,0.0,meteohub,2013-08-10 05:47:00,
2013-08-10 01:52:00,83.5,21.2,-100.00,SSE,163,0.0,-999.0,10,-99.99,,,0.00,0.0,meteohub,2013-08-10 05:52:00,
2013-08-10 01:57:00,83.5,23.4,-100.00,SSE,160,0.0,-999.0,11,-99.99,,,0.00,0.0,meteohub,2013-08-10 05:57:00,
2013-08-10 02:02:00,83.7,23.5,-100.00,SSE,159,0.0,-999.0,11,-99.99,,,0.00,0.0,meteohub,2013-08-10 06:02:00,
2013-08-10 02:07:00,83.8,23.7,-100.00,South,170,4.0,-999.0,11,-99.99,,,0.00,0.0,meteohub,2013-08-10 06:07:00,
2013-08-10 02:17:00,83.7,25.7,-100.00,SE,146,0.0,-999.0,12,-99.99,,,0.00,0.0,meteohub,2013-08-10 06:17:00,
2013-08-10 02:22:00,83.8,27.7,-100.00,SSE,157,6.0,-999.0,13,-99.99,,,0.00,0.0,meteohub,2013-08-10 06:22:00,
2013-08-10 02:27:00,83.8,29.5,-100.00,SSE,156,2.0,-999.0,14,-99.99,,,0.00,0.0,meteohub,2013-08-10 06:27:00,
2013-08-10 02:32:00,83.8,29.5,-100.00,SSE,161,0.0,-999.0,14,-99.99,,,0.00,0.0,meteohub,2013-08-10 06:32:00,
2013-08-10 02:37:00,83.8,29.5,-100.00,SE,146,0.0,-999.0,14,-99.99,,,0.00,0.0,meteohub,2013-08-10 06:37:00,
2013-08-10 02:42:00,84.0,29.7,-100.00,SE,134,0.0,-999.0,14,-99.99,,,0.00,0.0,meteohub,2013-08-10 06:42:00,
2013-08-10 02:47:00,84.0,29.7,-100.00,SSE,163,3.0,-999.0,14,-99.99,,,0.00,0.0,meteohub,2013-08-10 06:47:00,
2013-08-10 02:52:00,83.8,29.5,-100.00,SSE,156,4.0,-999.0,14,-99.99,,,0.00,0.0,meteohub,2013-08-10 06:52:00,
2013-08-10 02:57:00,83.8,27.7,-100.00,SE,134,0.0,-999.0,13,-99.99,,,0.00,0.0,meteohub,2013-08-10 06:57:00,
2013-08-10 03:02:00,84.0,27.9,-100.00,SSE,148,0.0,-999.0,13,-99.99,,,0.00,0.0,meteohub,2013-08-10 07:02:00,
2013-08-10 03:07:00,83.8,27.7,-100.00,South,173,6.0,-999.0,13,-99.99,,,0.00,0.0,meteohub,2013-08-10 07:07:00,
2013-08-10 03:12:00,83.8,25.9,-100.00,SSE,157,4.0,-999.0,12,-99.99,,,0.00,0.0,meteohub,2013-08-10 07:12:00,
2013-08-10 03:17:00,84.0,25.9,-100.00,South,179,3.0,-999.0,12,-99.99,,,0.00,0.0,meteohub,2013-08-10 07:17:00,
2013-08-10 03:22:00,84.0,23.9,-100.00,South,170,4.0,-999.0,11,-99.99,,,0.00,0.0,meteohub,2013-08-10 07:22:00,
2013-08-10 03:27:00,83.8,23.7,-100.00,SSE,157,3.0,-999.0,11,-99.99,,,0.00,0.0,meteohub,2013-08-10 07:27:00,
2013-08-10 03:32:00,83.7,21.4,-100.00,South,169,3.0,-999.0,10,-99.99,,,0.00,0.0,meteohub,2013-08-10 07:32:00,
2013-08-10 03:37:00,83.7,21.4,-100.00,SSE,149,0.0,-999.0,10,-99.99,,,0.00,0.0,meteohub,2013-08-10 07:37:00,
2013-08-10 03:42:00,84.0,21.6,-100.00,South,169,3.0,-999.0,10,-99.99,,,0.00,0.0,meteohub,2013-08-10 07:42:00,
2013-08-10 03:47:00,83.8,21.4,-100.00,SSE,157,4.0,-999.0,10,-99.99,,,0.00,0.0,meteohub,2013-08-10 07:47:00,
2013-08-10 03:52:00,83.7,21.4,-100.00,South,174,5.0,-999.0,10,-99.99,,,0.00,0.0,meteohub,2013-08-10 07:52:00,
2013-08-10 03:57:00,83.7,21.4,-100.00,South,183,3.0,-999.0,10,-99.99,,,0.00,0.0,meteohub,2013-08-10 07:57:00,
2013-08-10 04:02:00,83.8,21.4,-100.00,SSE,155,0.0,-999.0,10,-99.99,,,0.00,0.0,meteohub,2013-08-10 08:02:00,
2013-08-10 04:07:00,84.0,23.9,-100.00,SSE,156,2.0,-999.0,11,-99.99,,,0.00,0.0,meteohub,2013-08-10 08:07:00,
2013-08-10 04:12:00,83.8,21.4,-100.00,SE,141,1.0,-999.0,10,-99.99,,,0.00,0.0,meteohub,2013-08-10 08:12:00,
2013-08-10 04:17:00,83.7,21.4,-100.00,South,170,5.0,-999.0,10,-99.99,,,0.00,0.0,meteohub,2013-08-10 08:17:00,
2013-08-10 04:22:00,83.5,18.7,-100.00,SE,146,1.0,-999.0,9,-99.99,,,0.00,0.0,meteohub,2013-08-10 08:22:00,
2013-08-10 04:27:00,83.8,19.0,-100.00,SSE,166,3.0,-999.0,9,-99.99,,,0.00,0.0,meteohub,2013-08-10 08:27:00,
2013-08-10 04:32:00,83.7,21.4,-100.00,SSE,153,1.0,-999.0,10,-99.99,,,0.00,0.0,meteohub,2013-08-10 08:32:00,
2013-08-10 04:37:00,83.7,21.4,-100.00,SSE,152,8.0,-999.0,10,-99.99,,,0.00,0.0,meteohub,2013-08-10 08:37:00,
2013-08-10 04:42:00,83.7,21.4,-100.00,SSE,160,0.0,-999.0,10,-99.99,,,0.00,0.0,meteohub,2013-08-10 08:42:00,
2013-08-10 04:47:00,83.8,21.4,-100.00,South,173,0.0,-999.0,10,-99.99,,,0.00,0.0,meteohub,2013-08-10 08:47:00,
2013-08-10 04:52:00,83.8,21.4,-100.00,SSE,158,4.0,-999.0,10,-99.99,,,0.00,0.0,meteohub,2013-08-10 08:52:00,
2013-08-10 04:57:00,84.0,23.9,-100.00,SSE,161,2.0,-999.0,11,-99.99,,,0.00,0.0,meteohub,2013-08-10 08:57:00,
2013-08-10 05:02:00,84.0,21.6,-100.00,SSE,148,3.0,-999.0,10,-99.99,,,0.00,0.0,meteohub,2013-08-10 09:02:00,
2013-08-10 05:07:00,83.8,21.4,-100.00,SSE,159,2.0,-999.0,10,-99.99,,,0.00,0.0,meteohub,2013-08-10 09:07:00,
2013-08-10 05:12:00,84.0,21.6,-100.00,South,187,6.0,-999.0,10,-99.99,,,0.00,0.0,meteohub,2013-08-10 09:12:00,
2013-08-10 05:17:00,84.0,21.6,-100.00,South,173,3.0,-999.0,10,-99.99,,,0.00,0.0,meteohub,2013-08-10 09:17:00,
2013-08-10 05:22:00,84.2,21.7,-100.00,South,182,0.0,-999.0,10,-99.99,,,0.00,0.0,meteohub,2013-08-10 09:22:00,
2013-08-10 05:27:00,84.0,23.9,-100.00,SE,136,3.0,-999.0,11,-99.99,,,0.00,0.0,meteohub,2013-08-10 09:27:00,
2013-08-10 05:32:00,84.0,23.9,-100.00,South,189,3.0,-999.0,11,-99.99,,,0.00,0.0,meteohub,2013-08-10 09:32:00,
2013-08-10 05:37:00,84.7,26.4,-100.00,SSW,213,6.0,-999.0,12,-99.99,,,0.00,0.0,meteohub,2013-08-10 09:37:00,
2013-08-10 05:42:00,84.6,24.3,-100.00,SE,141,7.0,-999.0,11,-99.99,,,0.00,0.0,meteohub,2013-08-10 09:42:00,
2013-08-10 05:47:00,84.4,24.1,-100.00,SSE,161,6.0,-999.0,11,-99.99,,,0.00,0.0,meteohub,2013-08-10 09:47:00,
2013-08-10 05:52:00,84.2,21.7,-100.00,SSE,167,1.0,-999.0,10,-99.99,,,0.00,0.0,meteohub,2013-08-10 09:52:00,
2013-08-10 05:57:00,84.4,21.9,-100.00,SSW,213,7.0,-999.0,10,-99.99,,,0.00,0.0,meteohub,2013-08-10 09:57:00,
2013-08-10 06:02:00,84.6,24.3,-100.00,South,173,0.0,-999.0,11,-99.99,,,0.00,0.0,meteohub,2013-08-10 10:02:00,
2013-08-10 06:07:00,84.4,21.9,-100.00,SE,140,3.0,-999.0,10,-99.99,,,0.00,0.0,meteohub,2013-08-10 10:07:00,
2013-08-10 06:12:00,84.2,21.7,-100.00,SE,130,10.0,-999.0,10,-99.99,,,0.00,0.0,meteohub,2013-08-10 10:12:00,
2013-08-10 06:17:00,84.0,21.6,-100.00,SSE,159,5.0,-999.0,10,-99.99,,,0.00,0.0,meteohub,2013-08-10 10:17:00,
2013-08-10 06:22:00,84.4,21.9,-100.00,SSE,151,7.0,-999.0,10,-99.99,,,0.00,0.0,meteohub,2013-08-10 10:22:00,
2013-08-10 06:27:00,84.4,21.9,-100.00,SSE,147,4.0,-999.0,10,-99.99,,,0.00,0.0,meteohub,2013-08-10 10:27:00,
2013-08-10 06:32:00,84.6,24.3,-100.00,SSE,167,3.0,-999.0,11,-99.99,,,0.00,0.0,meteohub,2013-08-10 10:32:00,
2013-08-10 06:37:00,84.6,21.9,-100.00,SSW,198,4.0,-999.0,10,-99.99,,,0.00,0.0,meteohub,2013-08-10 10:37:00,
2013-08-10 06:42:00,84.4,21.9,-100.00,SSE,150,0.0,-999.0,10,-99.99,,,0.00,0.0,meteohub,2013-08-10 10:42:00,
2013-08-10 06:47:00,84.6,21.9,-100.00,SSE,167,4.0,-999.0,10,-99.99,,,0.00,0.0,meteohub,2013-08-10 10:47:00,
2013-08-10 06:52:00,84.6,24.3,-100.00,South,183,7.0,-999.0,11,-99.99,,,0.00,5.0,meteohub,2013-08-10 10:52:00,
2013-08-10 06:57:00,84.4,24.1,-100.00,South,179,4.0,-999.0,11,-99.99,,,0.00,9.0,meteohub,2013-08-10 10:57:00,
2013-08-10 07:02:00,84.2,24.1,-100.00,South,175,5.0,-999.0,11,-99.99,,,0.00,12.0,meteohub,2013-08-10 11:02:00,
2013-08-10 07:07:00,84.7,26.4,-100.00,South,184,5.0,-999.0,12,-99.99,,,0.00,21.0,meteohub,2013-08-10 11:07:00,
2013-08-10 07:12:00,84.7,30.2,-100.00,SSE,150,5.0,-999.0,14,-99.99,,,0.00,26.0,meteohub,2013-08-10 11:12:00,
2013-08-10 07:17:00,84.6,30.2,-100.00,SSE,148,1.0,-999.0,14,-99.99,,,0.00,33.0,meteohub,2013-08-10 11:17:00,
2013-08-10 07:22:00,84.4,30.0,-100.00,SE,140,3.0,-999.0,14,-99.99,,,0.00,42.0,meteohub,2013-08-10 11:22:00,
2013-08-10 07:27:00,84.6,30.2,-100.00,South,181,3.0,-999.0,14,-99.99,,,0.00,63.0,meteohub,2013-08-10 11:27:00,
2013-08-10 07:32:00,84.7,33.6,-100.00,SE,142,2.0,-999.0,16,-99.99,,,0.00,74.0,meteohub,2013-08-10 11:32:00,
2013-08-10 07:37:00,84.7,32.0,-100.00,SSE,167,1.0,-999.0,15,-99.99,,,0.00,88.0,meteohub,2013-08-10 11:37:00,
2013-08-10 07:42:00,84.7,32.0,-100.00,South,173,2.0,-999.0,15,-99.99,,,0.00,104.0,meteohub,2013-08-10 11:42:00,
2013-08-10 07:47:00,85.3,37.0,-100.00,South,175,4.0,-999.0,18,-99.99,,,0.00,121.0,meteohub,2013-08-10 11:47:00,
2013-08-10 07:52:00,85.5,38.5,-100.00,SSE,152,4.0,-999.0,19,-99.99,,,0.00,144.0,meteohub,2013-08-10 11:52:00,
2013-08-10 07:57:00,85.5,35.6,-100.00,SE,145,5.0,-999.0,17,-99.99,,,0.00,111.0,meteohub,2013-08-10 11:57:00,
2013-08-10 08:02:00,85.6,34.3,-100.00,SE,139,7.0,-999.0,16,-99.99,,,0.00,176.0,meteohub,2013-08-10 12:02:00,
2013-08-10 08:07:00,85.6,32.7,-100.00,South,187,3.0,-999.0,15,-99.99,,,0.00,69.0,meteohub,2013-08-10 12:07:00,
2013-08-10 08:12:00,85.8,32.9,-100.00,SE,142,0.0,-999.0,15,-99.99,,,0.00,211.0,meteohub,2013-08-10 12:12:00,
2013-08-10 08:17:00,86.0,31.3,-100.00,SSE,148,2.0,-999.0,14,-99.99,,,0.00,338.0,meteohub,2013-08-10 12:17:00,
2013-08-10 08:22:00,86.4,29.7,-100.00,SSE,155,4.0,-999.0,13,-99.99,,,0.00,343.0,meteohub,2013-08-10 12:22:00,
2013-08-10 08:27:00,86.5,36.5,-100.00,SE,137,4.0,-999.0,17,-99.99,,,0.00,292.0,meteohub,2013-08-10 12:27:00,
2013-08-10 08:32:00,86.9,42.3,-100.00,SSE,150,9.0,-999.0,21,-99.99,,,0.00,318.0,meteohub,2013-08-10 12:32:00,
2013-08-10 08:37:00,87.1,44.8,-100.00,SSE,163,2.0,-999.0,23,-99.99,,,0.00,323.0,meteohub,2013-08-10 12:37:00,
2013-08-10 08:42:00,86.7,43.3,-100.00,SSE,163,3.0,-999.0,22,-99.99,,,0.00,225.0,meteohub,2013-08-10 12:42:00,
2013-08-10 08:47:00,86.9,38.3,-100.00,South,188,5.0,-999.0,18,-99.99,,,0.00,396.0,meteohub,2013-08-10 12:47:00,
2013-08-10 08:52:00,87.4,42.8,-100.00,SW,219,2.0,-999.0,21,-99.99,,,0.00,432.0,meteohub,2013-08-10 12:52:00,
2013-08-10 08:57:00,87.4,43.9,-100.00,SSW,205,3.0,-999.0,22,-99.99,,,0.00,179.0,meteohub,2013-08-10 12:57:00,
2013-08-10 09:02:00,87.4,41.4,-100.00,SE,134,4.0,-999.0,20,-99.99,,,0.00,459.0,meteohub,2013-08-10 13:02:00,
2013-08-10 09:07:00,87.4,43.9,-100.00,South,179,3.0,-999.0,22,-99.99,,,0.00,288.0,meteohub,2013-08-10 13:07:00,
2013-08-10 09:12:00,87.6,45.3,-100.00,SSW,192,6.0,-999.0,23,-99.99,,,0.00,294.0,meteohub,2013-08-10 13:12:00,
2013-08-10 09:17:00,88.2,46.8,-100.00,SSW,202,4.0,-999.0,24,-99.99,,,0.00,503.0,meteohub,2013-08-10 13:17:00,
2013-08-10 09:22:00,87.6,53.2,-100.00,South,184,7.0,-999.0,31,-99.99,,,0.00,497.0,meteohub,2013-08-10 13:22:00,
2013-08-10 09:27:00,87.6,55.0,-100.00,South,186,6.0,-999.0,33,-99.99,,,0.00,512.0,meteohub,2013-08-10 13:27:00,
2013-08-10 09:32:00,88.0,56.8,-100.00,SE,128,7.0,-999.0,35,-99.99,,,0.00,533.0,meteohub,2013-08-10 13:32:00,
2013-08-10 09:37:00,87.1,59.9,-100.00,SSW,198,5.0,-999.0,40,-99.99,,,0.00,559.0,meteohub,2013-08-10 13:37:00,
2013-08-10 09:42:00,86.9,58.3,-100.00,South,173,7.0,-999.0,38,-99.99,,,0.00,582.0,meteohub,2013-08-10 13:42:00,
2013-08-10 09:47:00,87.3,58.6,-100.00,SE,138,7.0,-999.0,38,-99.99,,,0.00,596.0,meteohub,2013-08-10 13:47:00,
2013-08-10 09:52:00,87.6,58.1,-100.00,SE,140,5.0,-999.0,37,-99.99,,,0.00,619.0,meteohub,2013-08-10 13:52:00,
2013-08-10 09:57:00,87.8,57.6,-100.00,SSE,165,2.0,-999.0,36,-99.99,,,0.00,640.0,meteohub,2013-08-10 13:57:00,
2013-08-10 10:02:00,87.6,54.1,-100.00,SW,218,6.0,-999.0,32,-99.99,,,0.00,633.0,meteohub,2013-08-10 14:02:00,
2013-08-10 10:07:00,87.6,55.0,-100.00,South,170,11.0,-999.0,33,-99.99,,,0.00,350.0,meteohub,2013-08-10 14:07:00,
2013-08-10 10:12:00,88.0,53.6,-100.00,SSE,150,6.0,-999.0,31,-99.99,,,0.00,724.0,meteohub,2013-08-10 14:12:00,
2013-08-10 10:17:00,88.0,52.7,-100.00,SSE,153,1.0,-999.0,30,-99.99,,,0.00,812.0,meteohub,2013-08-10 14:17:00,
2013-08-10 10:22:00,88.0,54.5,-100.00,East,99,4.0,-999.0,32,-99.99,,,0.00,710.0,meteohub,2013-08-10 14:22:00,
2013-08-10 10:27:00,88.2,54.5,-100.00,SSW,205,7.0,-999.0,32,-99.99,,,0.00,707.0,meteohub,2013-08-10 14:27:00,
2013-08-10 10:32:00,88.2,57.0,-100.00,SE,134,4.0,-999.0,35,-99.99,,,0.00,707.0,meteohub,2013-08-10 14:32:00,
2013-08-10 10:37:00,88.2,56.3,-100.00,South,184,4.0,-999.0,34,-99.99,,,0.00,735.0,meteohub,2013-08-10 14:37:00,
2013-08-10 10:42:00,87.6,57.4,-100.00,SE,144,7.0,-999.0,36,-99.99,,,0.00,745.0,meteohub,2013-08-10 14:42:00,
2013-08-10 10:47:00,87.8,59.0,-100.00,SSW,194,7.0,-999.0,38,-99.99,,,0.00,758.0,meteohub,2013-08-10 14:47:00,
2013-08-10 10:52:00,88.0,60.6,-100.00,SSW,192,2.0,-999.0,40,-99.99,,,0.00,770.0,meteohub,2013-08-10 14:52:00,
2013-08-10 10:57:00,88.2,60.8,-100.00,South,179,5.0,-999.0,40,-99.99,,,0.00,784.0,meteohub,2013-08-10 14:57:00,
2013-08-10 11:02:00,87.6,57.4,-100.00,ESE,105,4.0,-999.0,36,-99.99,,,0.00,803.0,meteohub,2013-08-10 15:02:00,
2013-08-10 11:07:00,88.2,56.3,-100.00,SSW,193,5.0,-999.0,34,-99.99,,,0.00,812.0,meteohub,2013-08-10 15:07:00,
2013-08-10 11:17:00,88.2,57.0,-100.00,SSE,149,10.0,-999.0,35,-99.99,,,0.00,838.0,meteohub,2013-08-10 15:17:00,
2013-08-10 11:22:00,88.2,53.8,-100.00,SSE,168,6.0,-999.0,31,-99.99,,,0.00,840.0,meteohub,2013-08-10 15:22:00,
2013-08-10 11:27:00,88.5,53.1,-100.00,South,177,6.0,-999.0,30,-99.99,,,0.00,847.0,meteohub,2013-08-10 15:27:00,
2013-08-10 11:32:00,88.3,58.8,-100.00,South,187,4.0,-999.0,37,-99.99,,,0.00,858.0,meteohub,2013-08-10 15:32:00,
2013-08-10 11:37:00,88.5,58.1,-100.00,South,184,3.0,-999.0,36,-99.99,,,0.00,870.0,meteohub,2013-08-10 15:37:00,
2013-08-10 11:42:00,88.5,61.9,-100.00,SSW,203,9.0,-999.0,41,-99.99,,,0.00,881.0,meteohub,2013-08-10 15:42:00,
2013-08-10 11:47:00,88.5,58.1,-100.00,SSW,192,6.0,-999.0,36,-99.99,,,0.00,889.0,meteohub,2013-08-10 15:47:00,
2013-08-10 11:52:00,88.2,60.8,-100.00,SSE,165,4.0,-999.0,40,-99.99,,,0.00,900.0,meteohub,2013-08-10 15:52:00,
2013-08-10 11:57:00,88.3,60.3,-100.00,SSW,197,3.0,-999.0,39,-99.99,,,0.00,907.0,meteohub,2013-08-10 15:57:00,
2013-08-10 12:02:00,88.7,59.9,-100.00,SSW,207,7.0,-999.0,38,-99.99,,,0.00,912.0,meteohub,2013-08-10 16:02:00,
2013-08-10 12:07:00,88.3,58.8,-100.00,East,95,2.0,-999.0,37,-99.99,,,0.00,921.0,meteohub,2013-08-10 16:07:00,
2013-08-10 12:12:00,88.3,61.7,-100.00,SSW,192,6.0,-999.0,41,-99.99,,,0.00,928.0,meteohub,2013-08-10 16:12:00,
2013-08-10 12:17:00,88.5,61.2,-100.00,SSW,194,11.0,-999.0,40,-99.99,,,0.00,932.0,meteohub,2013-08-10 16:17:00,
2013-08-10 12:22:00,88.5,59.0,-100.00,SE,143,11.0,-999.0,37,-99.99,,,0.00,949.0,meteohub,2013-08-10 16:22:00,
2013-08-10 12:27:00,88.7,59.0,-100.00,South,175,6.0,-999.0,37,-99.99,,,0.00,960.0,meteohub,2013-08-10 16:27:00,
2013-08-10 12:32:00,88.7,59.9,-100.00,South,183,4.0,-999.0,38,-99.99,,,0.00,988.0,meteohub,2013-08-10 16:32:00,
2013-08-10 12:37:00,88.3,60.3,-100.00,SSE,165,4.0,-999.0,39,-99.99,,,0.00,965.0,meteohub,2013-08-10 16:37:00,
2013-08-10 12:42:00,88.7,60.6,-100.00,SE,128,13.0,-999.0,39,-99.99,,,0.00,967.0,meteohub,2013-08-10 16:42:00,
2013-08-10 12:47:00,88.2,60.1,-100.00,South,188,6.0,-999.0,39,-99.99,,,0.00,967.0,meteohub,2013-08-10 16:47:00,
2013-08-10 12:52:00,88.2,60.1,-100.00,SSW,211,16.0,-999.0,39,-99.99,,,0.00,983.0,meteohub,2013-08-10 16:52:00,
2013-08-10 12:57:00,88.5,61.9,-100.00,SSE,148,2.0,-999.0,41,-99.99,,,0.00,977.0,meteohub,2013-08-10 16:57:00,
2013-08-10 13:02:00,88.9,63.5,-100.00,SSW,204,5.0,-999.0,43,-99.99,,,0.00,974.0,meteohub,2013-08-10 17:02:00,
2013-08-10 13:07:00,89.2,66.4,-100.00,SSE,164,6.0,-999.0,47,-99.99,,,0.00,983.0,meteohub,2013-08-10 17:07:00,
2013-08-10 13:12:00,88.9,66.0,-100.00,SE,128,9.0,-999.0,47,-99.99,,,0.00,988.0,meteohub,2013-08-10 17:12:00,
2013-08-10 13:17:00,89.1,64.2,-100.00,SE,127,7.0,-999.0,44,-99.99,,,0.00,984.0,meteohub,2013-08-10 17:17:00,
2013-08-10 13:22:00,89.2,63.9,-100.00,SSW,195,12.0,-999.0,43,-99.99,,,0.00,1002.0,meteohub,2013-08-10 17:22:00,
2013-08-10 13:27:00,88.7,64.0,-100.00,SSE,157,6.0,-999.0,44,-99.99,,,0.00,990.0,meteohub,2013-08-10 17:27:00,
2013-08-10 13:32:00,88.9,62.8,-100.00,SSW,198,13.0,-999.0,42,-99.99,,,0.00,998.0,meteohub,2013-08-10 17:32:00,
2013-08-10 13:37:00,89.1,62.2,-100.00,South,187,7.0,-999.0,41,-99.99,,,0.00,995.0,meteohub,2013-08-10 17:37:00,
2013-08-10 13:42:00,89.4,64.0,-100.00,South,180,7.0,-999.0,43,-99.99,,,0.00,990.0,meteohub,2013-08-10 17:42:00,
2013-08-10 13:47:00,89.2,61.7,-100.00,SSE,161,4.0,-999.0,40,-99.99,,,0.00,990.0,meteohub,2013-08-10 17:47:00,
2013-08-10 13:57:00,89.2,62.4,-100.00,SSE,153,7.0,-999.0,41,-99.99,,,0.00,990.0,meteohub,2013-08-10 17:57:00,
2013-08-10 14:02:00,89.2,62.4,-100.00,South,187,3.0,-999.0,41,-99.99,,,0.00,988.0,meteohub,2013-08-10 18:02:00,
2013-08-10 14:07:00,88.7,59.0,-100.00,SSE,168,5.0,-999.0,37,-99.99,,,0.00,977.0,meteohub,2013-08-10 18:07:00,
2013-08-10 14:12:00,88.9,59.2,-100.00,South,191,6.0,-999.0,37,-99.99,,,0.00,969.0,meteohub,2013-08-10 18:12:00,
2013-08-10 14:17:00,89.2,61.7,-100.00,SSW,192,5.0,-999.0,40,-99.99,,,0.00,970.0,meteohub,2013-08-10 18:17:00,
2013-08-10 14:22:00,89.8,62.2,-100.00,SSE,148,7.0,-999.0,40,-99.99,,,0.00,990.0,meteohub,2013-08-10 18:22:00,
2013-08-10 14:27:00,90.1,63.9,-100.00,SSW,192,7.0,-999.0,42,-99.99,,,0.00,953.0,meteohub,2013-08-10 18:27:00,
2013-08-10 14:32:00,90.0,63.1,-100.00,SE,125,7.0,-999.0,41,-99.99,,,0.00,942.0,meteohub,2013-08-10 18:32:00,
2013-08-10 14:37:00,89.6,62.1,-100.00,SSW,198,9.0,-999.0,40,-99.99,,,0.00,947.0,meteohub,2013-08-10 18:37:00,
2013-08-10 14:42:00,89.8,64.2,-100.00,South,188,8.0,-999.0,43,-99.99,,,0.00,939.0,meteohub,2013-08-10 18:42:00,
2013-08-10 14:47:00,89.1,63.0,-100.00,SSW,204,9.0,-999.0,42,-99.99,,,0.00,944.0,meteohub,2013-08-10 18:47:00,
2013-08-10 14:52:00,88.5,58.1,-100.00,SSE,168,5.0,-999.0,36,-99.99,,,0.00,940.0,meteohub,2013-08-10 18:52:00,
2013-08-10 14:57:00,88.9,57.7,-100.00,SSE,167,5.0,-999.0,35,-99.99,,,0.00,1013.0,meteohub,2013-08-10 18:57:00,
2013-08-10 15:02:00,89.2,59.5,-100.00,ESE,123,5.0,-999.0,37,-99.99,,,0.00,905.0,meteohub,2013-08-10 19:02:00,
2013-08-10 15:07:00,90.1,67.8,-100.00,South,184,10.0,-999.0,48,-99.99,,,0.00,889.0,meteohub,2013-08-10 19:07:00,
2013-08-10 15:12:00,89.8,65.7,-100.00,South,186,2.0,-999.0,45,-99.99,,,0.00,872.0,meteohub,2013-08-10 19:12:00,
2013-08-10 15:17:00,89.8,66.9,-100.00,SSE,149,5.0,-999.0,47,-99.99,,,0.00,863.0,meteohub,2013-08-10 19:17:00,
2013-08-10 15:22:00,89.1,63.0,-100.00,SE,138,9.0,-999.0,42,-99.99,,,0.00,853.0,meteohub,2013-08-10 19:22:00,
2013-08-10 15:32:00,88.7,59.9,-100.00,SE,138,3.0,-999.0,38,-99.99,,,0.00,826.0,meteohub,2013-08-10 19:32:00,
2013-08-10 15:37:00,89.1,61.5,-100.00,South,187,9.0,-999.0,40,-99.99,,,0.00,819.0,meteohub,2013-08-10 19:37:00,
2013-08-10 15:42:00,89.2,63.1,-100.00,SE,131,6.0,-999.0,42,-99.99,,,0.00,814.0,meteohub,2013-08-10 19:42:00,
2013-08-10 15:47:00,89.4,65.3,-100.00,South,178,10.0,-999.0,45,-99.99,,,0.00,791.0,meteohub,2013-08-10 19:47:00,
2013-08-10 15:52:00,88.9,62.1,-100.00,South,178,6.0,-999.0,41,-99.99,,,0.00,777.0,meteohub,2013-08-10 19:52:00,
2013-08-10 15:57:00,89.1,63.0,-100.00,South,179,6.0,-999.0,42,-99.99,,,0.00,766.0,meteohub,2013-08-10 19:57:00,
2013-08-10 16:02:00,88.9,62.1,-100.00,SSE,152,5.0,-999.0,41,-99.99,,,0.00,758.0,meteohub,2013-08-10 20:02:00,
2013-08-10 16:07:00,88.9,62.1,-100.00,SSW,202,4.0,-999.0,41,-99.99,,,0.00,745.0,meteohub,2013-08-10 20:07:00,
2013-08-10 16:12:00,88.5,61.9,-100.00,SSW,194,9.0,-999.0,41,-99.99,,,0.00,731.0,meteohub,2013-08-10 20:12:00,
2013-08-10 16:17:00,88.2,59.4,-100.00,SE,144,3.0,-999.0,38,-99.99,,,0.00,712.0,meteohub,2013-08-10 20:17:00,
2013-08-10 16:22:00,88.3,61.0,-100.00,South,181,10.0,-999.0,40,-99.99,,,0.00,694.0,meteohub,2013-08-10 20:22:00,
2013-08-10 16:27:00,88.3,57.2,-100.00,SSW,194,5.0,-999.0,35,-99.99,,,0.00,679.0,meteohub,2013-08-10 20:27:00,
2013-08-10 16:32:00,88.3,55.6,-100.00,SW,226,6.0,-999.0,33,-99.99,,,0.00,696.0,meteohub,2013-08-10 20:32:00,
2013-08-10 16:37:00,88.2,57.9,-100.00,South,176,2.0,-999.0,36,-99.99,,,0.00,673.0,meteohub,2013-08-10 20:37:00,
2013-08-10 16:42:00,88.3,57.2,-100.00,South,189,9.0,-999.0,35,-99.99,,,0.00,635.0,meteohub,2013-08-10 20:42:00,
2013-08-10 16:47:00,88.0,56.1,-100.00,SW,222,2.0,-999.0,34,-99.99,,,0.00,615.0,meteohub,2013-08-10 20:47:00,
2013-08-10 16:52:00,88.3,57.2,-100.00,SSW,199,3.0,-999.0,35,-99.99,,,0.00,601.0,meteohub,2013-08-10 20:52:00,
2013-08-10 16:57:00,88.3,60.3,-100.00,SSE,163,3.0,-999.0,39,-99.99,,,0.00,575.0,meteohub,2013-08-10 20:57:00,
2013-08-10 17:02:00,88.2,58.6,-100.00,SSW,207,7.0,-999.0,37,-99.99,,,0.00,559.0,meteohub,2013-08-10 21:02:00,
2013-08-10 17:07:00,88.0,56.8,-100.00,SSW,209,5.0,-999.0,35,-99.99,,,0.00,547.0,meteohub,2013-08-10 21:07:00,
2013-08-10 17:12:00,88.0,56.1,-100.00,SSW,204,4.0,-999.0,34,-99.99,,,0.00,529.0,meteohub,2013-08-10 21:12:00,
2013-08-10 17:17:00,87.6,55.0,-100.00,SE,142,9.0,-999.0,33,-99.99,,,0.00,510.0,meteohub,2013-08-10 21:17:00,
2013-08-10 17:22:00,87.4,52.2,-100.00,SSW,200,4.0,-999.0,30,-99.99,,,0.00,489.0,meteohub,2013-08-10 21:22:00,
2013-08-10 17:27:00,87.6,51.4,-100.00,SSE,163,6.0,-999.0,29,-99.99,,,0.00,469.0,meteohub,2013-08-10 21:27:00,
2013-08-10 17:32:00,87.6,52.3,-100.00,SSE,155,5.0,-999.0,30,-99.99,,,0.00,455.0,meteohub,2013-08-10 21:32:00,
2013-08-10 17:37:00,87.8,52.5,-100.00,South,188,7.0,-999.0,30,-99.99,,,0.00,432.0,meteohub,2013-08-10 21:37:00,
2013-08-10 17:42:00,87.6,58.1,-100.00,South,185,4.0,-999.0,37,-99.99,,,0.00,415.0,meteohub,2013-08-10 21:42:00,
2013-08-10 17:47:00,88.0,56.1,-100.00,South,188,5.0,-999.0,34,-99.99,,,0.00,397.0,meteohub,2013-08-10 21:47:00,
2013-08-10 17:52:00,87.6,55.0,-100.00,SE,126,4.0,-999.0,33,-99.99,,,0.00,381.0,meteohub,2013-08-10 21:52:00,
2013-08-10 17:57:00,87.8,54.3,-100.00,South,186,3.0,-999.0,32,-99.99,,,0.00,364.0,meteohub,2013-08-10 21:57:00,
2013-08-10 18:02:00,87.6,58.1,-100.00,ESE,103,3.0,-999.0,37,-99.99,,,0.00,345.0,meteohub,2013-08-10 22:02:00,
2013-08-10 18:07:00,86.9,56.7,-100.00,SE,139,2.0,-999.0,36,-99.99,,,0.00,320.0,meteohub,2013-08-10 22:07:00,
2013-08-10 18:12:00,86.7,54.1,-100.00,South,184,6.0,-999.0,33,-99.99,,,0.00,302.0,meteohub,2013-08-10 22:12:00,
2013-08-10 18:17:00,87.1,54.5,-100.00,SSW,206,7.0,-999.0,33,-99.99,,,0.00,283.0,meteohub,2013-08-10 22:17:00,
2013-08-10 18:22:00,86.7,55.0,-100.00,South,183,5.0,-999.0,34,-99.99,,,0.00,267.0,meteohub,2013-08-10 22:22:00,
2013-08-10 18:27:00,86.7,52.5,-100.00,SSE,166,1.0,-999.0,31,-99.99,,,0.00,246.0,meteohub,2013-08-10 22:27:00,
2013-08-10 18:32:00,86.5,56.5,-100.00,SSE,159,2.0,-999.0,36,-99.99,,,0.00,230.0,meteohub,2013-08-10 22:32:00,
2013-08-10 18:37:00,86.7,54.1,-100.00,SSE,148,9.0,-999.0,33,-99.99,,,0.00,209.0,meteohub,2013-08-10 22:37:00,
2013-08-10 18:42:00,86.7,51.6,-100.00,South,173,7.0,-999.0,30,-99.99,,,0.00,186.0,meteohub,2013-08-10 22:42:00,
2013-08-10 18:47:00,86.7,49.6,-100.00,South,179,4.0,-999.0,28,-99.99,,,0.00,169.0,meteohub,2013-08-10 22:47:00,
2013-08-10 18:52:00,86.5,48.6,-100.00,SSE,159,3.0,-999.0,27,-99.99,,,0.00,151.0,meteohub,2013-08-10 22:52:00,
2013-08-10 18:57:00,86.5,49.6,-100.00,SE,134,5.0,-999.0,28,-99.99,,,0.00,134.0,meteohub,2013-08-10 22:57:00,
2013-08-10 19:02:00,86.5,46.6,-100.00,South,176,0.0,-999.0,25,-99.99,,,0.00,116.0,meteohub,2013-08-10 23:02:00,
2013-08-10 19:07:00,86.9,44.6,-100.00,South,188,5.0,-999.0,23,-99.99,,,0.00,97.0,meteohub,2013-08-10 23:07:00,
2013-08-10 19:12:00,86.5,48.6,-100.00,SSE,159,4.0,-999.0,27,-99.99,,,0.00,83.0,meteohub,2013-08-10 23:12:00,
2013-08-10 19:17:00,86.4,46.4,-100.00,SSE,155,3.0,-999.0,25,-99.99,,,0.00,69.0,meteohub,2013-08-10 23:17:00,
2013-08-10 19:22:00,86.4,44.2,-100.00,South,180,4.0,-999.0,23,-99.99,,,0.00,56.0,meteohub,2013-08-10 23:22:00,
2013-08-10 19:27:00,86.5,44.4,-100.00,South,173,4.0,-999.0,23,-99.99,,,0.00,46.0,meteohub,2013-08-10 23:27:00,
2013-08-10 19:32:00,86.2,45.1,-100.00,South,190,4.0,-999.0,24,-99.99,,,0.00,42.0,meteohub,2013-08-10 23:32:00,
2013-08-10 19:42:00,86.4,41.9,-100.00,South,178,3.0,-999.0,21,-99.99,,,0.00,25.0,meteohub,2013-08-10 23:42:00,
2013-08-10 19:47:00,86.4,40.6,-100.00,SSE,161,3.0,-999.0,20,-99.99,,,0.00,16.0,meteohub,2013-08-10 23:47:00,
2013-08-10 19:52:00,86.5,39.4,-100.00,South,179,5.0,-999.0,19,-99.99,,,0.00,11.0,meteohub,2013-08-10 23:52:00,
2013-08-10 19:57:00,86.4,41.9,-100.00,South,180,3.0,-999.0,21,-99.99,,,0.00,5.0,meteohub,2013-08-10 23:57:00,
2013-08-10 20:02:00,86.4,40.6,-100.00,South,171,4.0,-999.0,20,-99.99,,,0.00,0.0,meteohub,2013-08-11 00:02:00,
2013-08-10 20:07:00,86.2,40.5,-100.00,South,172,0.0,-999.0,20,-99.99,,,0.00,0.0,meteohub,2013-08-11 00:07:00,
2013-08-10 20:12:00,86.4,37.9,-100.00,SSE,161,3.0,-999.0,18,-99.99,,,0.00,0.0,meteohub,2013-08-11 00:12:00,
2013-08-10 20:17:00,86.2,37.8,-100.00,SSE,159,0.0,-999.0,18,-99.99,,,0.00,0.0,meteohub,2013-08-11 00:17:00,
2013-08-10 20:22:00,86.4,36.3,-100.00,SSW,192,6.0,-999.0,17,-99.99,,,0.00,0.0,meteohub,2013-08-11 00:22:00,
2013-08-10 20:27:00,86.4,36.3,-100.00,SSE,153,6.0,-999.0,17,-99.99,,,0.00,0.0,meteohub,2013-08-11 00:27:00,
2013-08-10 20:32:00,86.2,36.3,-100.00,SSE,156,3.0,-999.0,17,-99.99,,,0.00,0.0,meteohub,2013-08-11 00:32:00,
2013-08-10 20:37:00,86.2,34.7,-100.00,SE,145,6.0,-999.0,16,-99.99,,,0.00,0.0,meteohub,2013-08-11 00:37:00,
2013-08-10 20:42:00,86.4,34.9,-100.00,SSW,205,5.0,-999.0,16,-99.99,,,0.00,0.0,meteohub,2013-08-11 00:42:00,
2013-08-10 20:47:00,86.2,36.3,-100.00,SSE,165,4.0,-999.0,17,-99.99,,,0.00,0.0,meteohub,2013-08-11 00:47:00,
2013-08-10 20:52:00,86.0,36.1,-100.00,SSE,148,5.0,-999.0,17,-99.99,,,0.00,0.0,meteohub,2013-08-11 00:52:00,
2013-08-10 20:57:00,86.2,34.7,-100.00,SSE,155,3.0,-999.0,16,-99.99,,,0.00,0.0,meteohub,2013-08-11 00:57:00,
2013-08-10 21:02:00,86.0,34.5,-100.00,South,178,4.0,-999.0,16,-99.99,,,0.00,0.0,meteohub,2013-08-11 01:02:00,
2013-08-10 21:07:00,86.2,33.1,-100.00,South,174,1.0,-999.0,15,-99.99,,,0.00,0.0,meteohub,2013-08-11 01:07:00,
2013-08-10 21:12:00,86.2,33.1,-100.00,SSE,155,3.0,-999.0,15,-99.99,,,0.00,0.0,meteohub,2013-08-11 01:12:00,
2013-08-10 21:17:00,86.0,31.3,-100.00,SSE,160,0.0,-999.0,14,-99.99,,,0.00,0.0,meteohub,2013-08-11 01:17:00,
2013-08-10 21:22:00,85.8,31.1,-100.00,SE,134,4.0,-999.0,14,-99.99,,,0.00,0.0,meteohub,2013-08-11 01:22:00,
2013-08-10 21:27:00,86.0,32.9,-100.00,South,184,5.0,-999.0,15,-99.99,,,0.00,0.0,meteohub,2013-08-11 01:27:00,
2013-08-10 21:32:00,85.8,34.5,-100.00,South,175,2.0,-999.0,16,-99.99,,,0.00,0.0,meteohub,2013-08-11 01:32:00,
2013-08-10 21:37:00,85.6,34.3,-100.00,SE,146,4.0,-999.0,16,-99.99,,,0.00,0.0,meteohub,2013-08-11 01:37:00,
2013-08-10 21:42:00,85.8,32.9,-100.00,SE,146,0.0,-999.0,15,-99.99,,,0.00,0.0,meteohub,2013-08-11 01:42:00,
2013-08-10 21:47:00,85.8,34.5,-100.00,South,186,1.0,-999.0,16,-99.99,,,0.00,0.0,meteohub,2013-08-11 01:47:00,
2013-08-10 21:52:00,85.8,34.5,-100.00,SSE,163,2.0,-999.0,16,-99.99,,,0.00,0.0,meteohub,2013-08-11 01:52:00,
2013-08-10 21:57:00,85.6,34.3,-100.00,SSE,152,1.0,-999.0,16,-99.99,,,0.00,0.0,meteohub,2013-08-11 01:57:00,
2013-08-10 22:02:00,85.8,32.9,-100.00,South,182,1.0,-999.0,15,-99.99,,,0.00,0.0,meteohub,2013-08-11 02:02:00,
2013-08-10 22:07:00,85.8,31.1,-100.00,SSE,168,2.0,-999.0,14,-99.99,,,0.00,0.0,meteohub,2013-08-11 02:07:00,
2013-08-10 22:12:00,85.8,32.9,-100.00,SE,146,3.0,-999.0,15,-99.99,,,0.00,0.0,meteohub,2013-08-11 02:12:00,
2013-08-10 22:17:00,85.6,30.9,-100.00,SSW,198,0.0,-999.0,14,-99.99,,,0.00,0.0,meteohub,2013-08-11 02:17:00,
2013-08-10 22:22:00,86.0,29.5,-100.00,South,169,2.0,-999.0,13,-99.99,,,0.00,0.0,meteohub,2013-08-11 02:22:00,
2013-08-10 22:27:00,85.8,29.3,-100.00,SSE,148,0.0,-999.0,13,-99.99,,,0.00,0.0,meteohub,2013-08-11 02:27:00,
2013-08-10 22:32:00,85.6,29.1,-100.00,South,170,4.0,-999.0,13,-99.99,,,0.00,0.0,meteohub,2013-08-11 02:32:00,
2013-08-10 22:37:00,85.8,29.3,-100.00,South,185,5.0,-999.0,13,-99.99,,,0.00,0.0,meteohub,2013-08-11 02:37:00,
2013-08-10 22:42:00,85.8,27.3,-100.00,SE,125,6.0,-999.0,12,-99.99,,,0.00,0.0,meteohub,2013-08-11 02:42:00,
2013-08-10 22:47:00,86.2,27.7,-100.00,SSE,153,2.0,-999.0,12,-99.99,,,0.00,0.0,meteohub,2013-08-11 02:47:00,
2013-08-10 22:57:00,85.6,29.1,-100.00,South,171,1.0,-999.0,13,-99.99,,,0.00,0.0,meteohub,2013-08-11 02:57:00,
2013-08-10 23:02:00,85.6,29.1,-100.00,South,184,5.0,-999.0,13,-99.99,,,0.00,0.0,meteohub,2013-08-11 03:02:00,
2013-08-10 23:07:00,85.8,29.3,-100.00,SSE,157,3.0,-999.0,13,-99.99,,,0.00,0.0,meteohub,2013-08-11 03:07:00,
2013-08-10 23:12:00,85.6,27.1,-100.00,SE,142,1.0,-999.0,12,-99.99,,,0.00,0.0,meteohub,2013-08-11 03:12:00,
2013-08-10 23:17:00,85.5,25.0,-100.00,SSE,150,4.0,-999.0,11,-99.99,,,0.00,0.0,meteohub,2013-08-11 03:17:00,
2013-08-10 23:22:00,85.6,27.1,-100.00,South,180,5.0,-999.0,12,-99.99,,,0.00,0.0,meteohub,2013-08-11 03:22:00,
2013-08-10 23:32:00,85.6,29.1,-100.00,SSE,157,4.0,-999.0,13,-99.99,,,0.00,0.0,meteohub,2013-08-11 03:32:00,
2013-08-10 23:37:00,85.6,27.1,-100.00,SSE,167,0.0,-999.0,12,-99.99,,,0.00,0.0,meteohub,2013-08-11 03:37:00,
2013-08-10 23:42:00,85.6,27.1,-100.00,South,178,4.0,-999.0,12,-99.99,,,0.00,0.0,meteohub,2013-08-11 03:42:00,
2013-08-10 23:52:00,85.5,25.0,-100.00,SSE,150,4.0,-999.0,11,-99.99,,,0.00,0.0,meteohub,2013-08-11 03:52:00,
2013-08-10 23:57:00,85.5,27.1,-100.00,SSE,148,5.0,-999.0,12,-99.99,,,0.00,0.0,meteohub,2013-08-11 03:57:00,